Flag for Russia Weather past 2 weeks in Krasnodar, Russia

Now
75 °F

Sunny.


Feels Like: 77 °F
Forecast: 62 / 79 °F
Wind: 1 mph from North

Location: Krasnodar Airport

Current Time: Aug 28, 2014 at 9:44:04 AM

Latest Report: Aug 28, 2014 at 9:00 AM


Visibility: 6 mi

Pressure: 29.77 "Hg

Humidity: 65%

Dew point: 63 °F

Location of KrasnodarLocation

Historic Weather in Krasnodar — Graph

°F

Krasnodar temperature yesterday

Maximum temperature yesterday: 93 °F (at 4:30 PM)
Minimum temperature yesterday: 63 °F (at 6:30 AM)
Average temperature yesterday: 77 °F

Past Weeks' High & Low Weather Summary

 TemperatureHumidityPressure
High99 °F (Aug 14, 5:30 PM)94% (Aug 16, 6:00 AM)30.07 "Hg (Aug 16, 6:00 AM)
Low59 °F (Aug 24, 6:30 AM)27% (Aug 14, 5:30 PM)29.53 "Hg (Aug 18, 3:30 AM)
Average79 °F60%29.86 "Hg
* Reported Aug 13 8:00 AM — Aug 28 8:30 AM, Krasnodar, Weather by CustomWeather, © 2014

Note: Actual official high and low records may vary slightly from our data, if they occured in-between our weather recording intervals... More about our weather records

Advertising

Krasnodar weather history for previous 24 hours

 ConditionsComfort  
Time TempWeatherWind HumidityBarometerVisibility
8:30 AM
Aug 28
72 °FSunny.3 mph73%29.77 "Hg10 mi
8:00 AM70 °FSunny.3 mph73%29.77 "Hg10 mi
7:30 AM68 °FClear.3 mph78%29.77 "Hg10 mi
6:30 AM66 °FClear.1 mph73%29.74 "Hg10 mi
6:00 AM64 °FClear.1 mph78%29.74 "Hg10 mi
5:30 AM66 °FClear.1 mph73%29.74 "Hg10 mi
5:00 AM68 °FClear.3 mph69%29.74 "Hg10 mi
4:30 AM66 °FClear.1 mph73%29.74 "Hg10 mi
4:00 AM68 °FClear.3 mph69%29.74 "Hg10 mi
3:30 AM68 °FClear.3 mph69%29.74 "Hg10 mi
3:00 AM68 °FClear.6 mph69%29.74 "Hg10 mi
2:30 AM70 °FClear.3 mph60%29.74 "Hg10 mi
2:00 AM70 °FClear.6 mph60%29.74 "Hg10 mi
1:30 AM72 °FClear.6 mph57%29.74 "Hg10 mi
1:00 AM72 °FClear.6 mph57%29.74 "Hg10 mi
12:30 AM73 °FClear.3 mph57%29.74 "Hg10 mi
12:00 AM73 °FClear.6 mph57%29.74 "Hg10 mi
11:30 PM
Aug 27
75 °FClear.6 mph54%29.74 "Hg10 mi
11:00 PM77 °FClear.6 mph51%29.74 "Hg10 mi
10:30 PM79 °FClear.8 mph51%29.74 "Hg10 mi
9:30 PM81 °FClear.6 mph54%29.77 "Hg10 mi
9:00 PM81 °FSunny.3 mph62%29.77 "Hg10 mi
8:30 PM86 °FSunny.1 mph52%29.74 "Hg10 mi
8:00 PM88 °FSunny.1 mph49%29.74 "Hg10 mi
7:00 PM90 °FPassing clouds.3 mph46%29.74 "HgN/A
6:30 PM91 °FPassing clouds.3 mph44%29.74 "HgN/A
6:00 PM91 °FPassing clouds.6 mph44%29.77 "HgN/A
5:30 PM90 °FSunny.8 mph49%29.77 "Hg10 mi
5:00 PM93 °FSunny.3 mph39%29.77 "Hg10 mi
4:30 PM93 °FPassing clouds.3 mph39%29.77 "HgN/A
4:00 PM91 °FPassing clouds.6 mph41%29.80 "HgN/A
3:30 PM90 °FSunny.3 mph41%29.80 "Hg10 mi
3:00 PM91 °FPassing clouds.3 mph41%29.83 "HgN/A
2:30 PM90 °FPassing clouds.6 mph43%29.83 "HgN/A
2:00 PM88 °FPassing clouds.6 mph46%29.83 "HgN/A
1:30 PM88 °FSunny.3 mph46%29.83 "Hg10 mi
12:30 PM86 °FPassing clouds.3 mph46%29.86 "HgN/A
12:00 PM84 °FSunny.3 mph48%29.86 "Hg10 mi
11:30 AM81 °FSunny.1 mph51%29.86 "Hg10 mi
11:00 AM79 °FPassing clouds.3 mph45%29.89 "HgN/A
10:30 AM77 °FPassing clouds.6 mph47%29.89 "HgN/A
10:00 AM75 °FPassing clouds.6 mph50%29.89 "HgN/A
9:30 AM75 °FSunny.1 mph47%29.89 "Hg10 mi
9:00 AM73 °FSunny.1 mph50%29.89 "Hg10 mi
Weather by CustomWeather, © 2014

See weather overviewHow to use our weather pages